Baton Rouge, LA

11:39 PM CST on November 22, 2017 (GMT -0600)
Baton Rouge Metro-Ryan

Weather History for KBTR - October, 2013

Change the Weather History Date:

Friday, October 4, 2013

  Actual Average Record
Temperature  
Mean Temperature 80 °F 73 °F  
Max Temperature 87 °F 84 °F 96 °F (1904)
Min Temperature 73 °F 62 °F 45 °F (1974)
Degree Days  
Heating Degree Days 0 0  
Month to date heating degree days 0 0  
Since 1 July heating degree days 0 2  
Cooling Degree Days 15 8  
Month to date cooling degree days 58 35  
Year to date cooling degree days 2503 2606  
Growing Degree Days 30 (Base 50)    
Moisture  
Dew Point 73 °F    
Average Humidity 78    
Maximum Humidity 94    
Minimum Humidity 61    
Precipitation  
Precipitation T in 0.14 in 4.02 in (1964)
Month to date precipitation 0.54 0.56  
Year to date precipitation 60.10 46.81  
Snow  
Snow 0.00 in - - ()
Month to date snowfall 0.0  
Since 1 July snowfall 0.0  
Since 1 September snowfall 0.0  
Snow Depth 0.00 in    
Sea Level Pressure  
Sea Level Pressure 29.98 in    
Wind  
Wind Speed 6 mph (East)    
Max Wind Speed 23 mph    
Max Gust Speed 31 mph    
Visibility 10 miles    
Events      
T = Trace of Precipitation, MM = Missing Value Source: NWS Daily Summary

Daily Weather History Graph

Daily Weather History Graph

Search for Another Location

Airport or City:

Trip Planner

Search our weather history database for the weather conditions in past years. The results will help you decide how hot, cold, wet, or windy it might be!

Date:

Astronomy

Oct. 04, 2013 Rise Set
Actual Time 7:00 AM CDT 6:45 PM CDT
Civil Twilight 6:36 AM CDT 7:09 PM CDT
Nautical Twilight 6:08 AM CDT 7:37 PM CDT
Astronomical Twilight 5:40 AM CDT 8:05 PM CDT
Moon 6:35 AM CDT (10/4) 6:31 PM CDT (10/4)
Length of Visible Light 12h 33m
Length of Day
11h 45m
Waning Crescent, 0% of the Moon is Illuminated
Oct 4
Waning Crescent
Oct 4
New
Oct 11
First Quarter
Oct 18
Full
Oct 26
Last Quarter

Hourly Weather History & Observations

Time (CDT) Temp. Heat Index Dew Point Humidity Pressure Visibility Wind Dir Wind Speed Gust Speed Precip Events Conditions
12:42 AM 75.2 °F - 73.4 °F 94% 29.98 in 10.0 mi ESE 9.2 mph - N/A   Scattered Clouds
12:53 AM 75.9 °F - 73.0 °F 91% 29.97 in 10.0 mi ESE 6.9 mph - N/A   Scattered Clouds
1:49 AM 75.2 °F - 73.4 °F 94% 29.97 in 10.0 mi ESE 3.5 mph - N/A   Overcast
1:53 AM 75.9 °F - 73.0 °F 91% 29.97 in 10.0 mi East 4.6 mph - N/A   Overcast
2:42 AM 75.2 °F - 73.4 °F 94% 29.95 in 10.0 mi East 3.5 mph - N/A   Scattered Clouds
2:53 AM 75.0 °F - 73.0 °F 94% 29.94 in 10.0 mi Calm Calm - N/A   Partly Cloudy
3:53 AM 73.0 °F - 72.0 °F 96% 29.94 in 10.0 mi ENE 3.5 mph - N/A   Clear
4:53 AM 73.0 °F - 72.0 °F 96% 29.95 in 10.0 mi ENE 4.6 mph - N/A   Clear
5:53 AM 73.0 °F - 72.0 °F 96% 29.96 in 10.0 mi East 4.6 mph - N/A   Clear
6:53 AM 73.0 °F - 72.0 °F 96% 29.98 in 10.0 mi ENE 5.8 mph - N/A   Clear
7:53 AM 73.9 °F - 72.0 °F 93% 30.00 in 10.0 mi East 5.8 mph - N/A   Partly Cloudy
8:53 AM 75.9 °F - 73.0 °F 91% 30.01 in 10.0 mi ESE 8.1 mph - N/A   Mostly Cloudy
9:53 AM 81.0 °F 86.2 °F 73.9 °F 79% 30.02 in 10.0 mi East 8.1 mph - N/A   Mostly Cloudy
10:53 AM 82.9 °F 89.4 °F 73.9 °F 74% 30.02 in 10.0 mi East 6.9 mph - N/A   Mostly Cloudy
11:53 AM 84.0 °F 89.6 °F 72.0 °F 67% 30.02 in 10.0 mi ESE 9.2 mph - N/A   Mostly Cloudy
12:53 PM 86.0 °F 92.2 °F 72.0 °F 63% 30.00 in 10.0 mi ESE 9.2 mph - N/A   Mostly Cloudy
1:53 PM 84.9 °F 90.7 °F 72.0 °F 65% 29.98 in 10.0 mi ESE 10.4 mph - 0.00 in   Mostly Cloudy
2:53 PM 84.9 °F 92.1 °F 73.9 °F 69% 29.97 in 10.0 mi ESE 6.9 mph - 0.00 in   Mostly Cloudy
3:53 PM 84.0 °F 90.2 °F 73.0 °F 69% 29.98 in 10.0 mi ESE 12.7 mph - 0.00 in   Mostly Cloudy
4:53 PM 80.1 °F 84.5 °F 73.9 °F 81% 29.98 in 10.0 mi East 8.1 mph - 0.00 in   Scattered Clouds
5:53 PM 81.0 °F 85.8 °F 73.0 °F 77% 29.97 in 10.0 mi East 10.4 mph - N/A   Scattered Clouds
6:53 PM 78.1 °F - 73.9 °F 87% 29.98 in 10.0 mi NE 5.8 mph - N/A   Partly Cloudy
7:53 PM 75.9 °F - 73.0 °F 91% 29.99 in 10.0 mi East 4.6 mph - N/A   Clear
8:53 PM 75.0 °F - 73.0 °F 94% 30.00 in 10.0 mi East 3.5 mph - N/A   Clear
9:53 PM 75.0 °F - 73.0 °F 94% 30.01 in 10.0 mi East 4.6 mph - N/A   Clear
10:53 PM 73.9 °F - 72.0 °F 93% 30.00 in 10.0 mi East 5.8 mph - N/A   Clear
11:53 PM 73.9 °F - 72.0 °F 93% 29.99 in 10.0 mi ENE 4.6 mph - N/A   Clear